Location: Chuathbaluk
(61.5726°N, 159.2454°W)
Time: 04:22:59
(UTC+00:00)

Transit 2A - Pass Details

Date: 02 December 2020
Orbit: 599 x 960 km, 66.7° (Epoch: 26 January)

Event Time Altitude Azimuth Distance (km) Brightness Sun altitude
Rises 03:45:21 0° 203° (SSW) 3,609 10.1 -14.5°
Reaches altitude 10° 03:48:02 10° 198° (SSW) 2,641 9.3 -14.8°
Maximum altitude 03:53:52 45° 128° (SE) 1,197 6.7 -15.5°
Enters shadow 03:56:57 24° 70° (ENE) 1,701 7.2 -15.8°
Drops below altitude 10° 03:59:18 10° 57° (ENE) 2,463 - -16.1°
Sets 04:01:44 0° 51° (NE) 3,344 - -16.4°
